Waarnemingen

Advertentie
Mijn weer
Dunkerque, Frankrijk (7010): temperatuur & dauwpunt: 18.02.2017 09:00:00 - 24.02.2017 09:00:00 (CET)Dunkerque, Frankrijk (7010): windsnelheid & windstoten: 18.02.2017 09:00:00 - 24.02.2017 09:00:00 (CET)Dunkerque, Frankrijk (7010): windrichting: 18.02.2017 09:00:00 - 24.02.2017 09:00:00 (CET)Dunkerque, Frankrijk (7010): luchtdruk: 18.02.2017 09:00:00 - 24.02.2017 09:00:00 (CET)Dunkerque, Frankrijk (7010): zicht: 18.02.2017 09:00:00 - 24.02.2017 09:00:00 (CET)Dunkerque, Frankrijk (7010): neerslag: 18.02.2017 09:00:00 - 24.02.2017 09:00:00 (CET)
Datum & Tijd tt [°C] td [°C] ff [km/u] ff [kn] fx [km/u] fx [kn] dd ppp [hPa] vv [km] rr [mm]
24.02.2017 09:00:00 5,8 2,6 28 15 42 23 NW 1013,7 - 0,0
24.02.2017 08:00:00 6,2 2,8 26 14 36 19 WNW 1012,7 - 0,0
24.02.2017 07:00:00 6,0 2,6 24 13 40 21 NW 1012,0 15 0,0
24.02.2017 06:00:00 5,9 2,4 26 14 37 20 WNW 1011,6 - 0,0
24.02.2017 05:00:00 6,0 2,5 24 13 38 21 WNW 1010,2 - 0,0
24.02.2017 04:00:00 6,2 2,5 29 16 45 24 NW 1009,8 15 0,0
24.02.2017 03:00:00 6,5 2,6 29 16 45 24 WNW 1008,8 - 0,0
24.02.2017 02:00:00 6,9 3,1 29 16 48 26 WNW 1007,8 - 0,0
24.02.2017 01:00:00 7,2 2,1 38 20 54 29 WNW 1006,6 15 0,0
24.02.2017 00:00:00 7,3 2,8 36 20 58 31 WNW 1005,3 - 0,0
23.02.2017 23:00:00 7,6 2,5 40 22 72 39 WNW 1003,9 - 0,0
23.02.2017 22:00:00 7,7 2,4 49 26 88 48 WNW 1002,1 - 0,0
23.02.2017 21:00:00 8,3 1,7 56 30 94 51 WNW 999,9 - 0,0
23.02.2017 20:00:00 8,9 2,5 49 27 82 45 WNW 998,2 - 0,0
23.02.2017 19:00:00 9,4 2,7 49 26 92 50 W 996,6 14 0,0
23.02.2017 18:00:00 10,0 3,9 51 27 87 47 W 995,0 - 0,0
23.02.2017 17:00:00 10,4 4,1 45 25 86 47 WZW 993,8 - 0,0
23.02.2017 16:00:00 10,7 4,2 50 27 104 56 WZW 993,2 - 0,0
23.02.2017 15:00:00 10,7 5,0 49 27 108 58 WZW 992,6 - 0,0
23.02.2017 14:00:00 11,4 5,0 48 26 106 57 WZW 992,8 - 0,0
23.02.2017 13:00:00 11,7 5,1 48 26 96 52 WZW 992,9 14 0,0
23.02.2017 12:00:00 11,4 7,7 51 28 91 49 WZW 993,5 - 0,2
23.02.2017 11:00:00 10,0 7,8 44 24 82 44 ZW 994,1 - 0,0
23.02.2017 10:00:00 9,6 7,5 36 20 77 42 ZW 996,1 14 0,0
23.02.2017 09:00:00 9,6 7,4 45 24 76 41 ZW 997,6 - 0,0
23.02.2017 08:00:00 9,4 7,5 36 19 71 38 ZW 999,4 - 0,0
23.02.2017 07:00:00 9,2 7,6 36 19 64 35 ZW 1000,5 14 0,0
23.02.2017 06:00:00 9,8 8,1 39 21 68 37 ZW 1001,5 - 0,0
23.02.2017 05:00:00 9,6 8,2 35 19 61 33 ZW 1002,9 - 0,0
23.02.2017 04:00:00 10,1 8,4 34 18 64 35 ZW 1003,9 - 0,0
23.02.2017 03:00:00 10,3 8,4 39 21 67 36 WZW 1005,2 - 0,0
23.02.2017 02:00:00 10,3 8,7 38 20 69 37 WZW 1006,0 - 0,0
23.02.2017 01:00:00 10,5 9,3 31 17 74 40 WZW 1006,9 14 0,2
23.02.2017 00:00:00 10,4 9,5 35 19 68 37 WZW 1007,6 - 0,2
22.02.2017 23:00:00 10,6 9,5 37 20 67 36 WZW 1008,1 - 0,2
22.02.2017 22:00:00 10,5 9,4 34 18 68 37 WZW 1008,4 14 0,0
22.02.2017 21:00:00 10,5 9,7 32 18 71 39 WZW 1008,5 10 0,2
22.02.2017 20:00:00 10,5 9,6 36 19 74 40 WZW 1008,3 - 1,2
22.02.2017 19:00:00 10,7 9,6 32 18 71 38 WZW 1008,0 8 0,0
22.02.2017 18:00:00 10,6 9,4 34 18 69 37 WZW 1008,3 - 0,0
22.02.2017 17:00:00 11,0 9,4 32 18 72 39 WZW 1008,5 - 0,0
22.02.2017 16:00:00 10,9 9,3 36 19 76 41 WZW 1008,5 12 0,0
22.02.2017 15:00:00 11,0 8,9 36 19 75 40 WZW 1009,0 - 0,0
22.02.2017 14:00:00 11,3 9,2 36 19 69 37 WZW 1009,0 - 0,0
22.02.2017 13:00:00 11,1 9,0 34 18 72 39 WZW 1009,5 - 0,0
22.02.2017 12:00:00 11,1 8,8 34 18 70 38 WZW 1010,1 - 0,0
22.02.2017 11:00:00 11,2 8,8 34 18 69 37 WZW 1010,1 - 0,0
22.02.2017 10:00:00 11,3 8,9 31 17 70 38 WZW 1010,0 12 0,0
22.02.2017 09:00:00 10,9 8,3 28 15 61 33 WZW 1010,0 - 0,0
22.02.2017 08:00:00 10,7 8,1 34 18 66 36 WZW 1009,9 - 0,0
22.02.2017 07:00:00 11,0 8,2 35 19 67 36 WZW 1009,5 12 0,0
22.02.2017 06:00:00 11,0 8,6 34 19 67 36 WZW 1009,5 - 0,0
22.02.2017 05:00:00 10,9 8,5 33 18 72 39 WZW 1009,9 - 0,0
22.02.2017 04:00:00 10,9 8,8 30 16 61 33 WZW 1010,5 - 0,0
22.02.2017 03:00:00 10,6 8,9 33 18 63 34 WZW 1011,2 - 0,0
22.02.2017 02:00:00 10,7 9,0 30 16 74 40 WZW 1011,8 - 0,0
22.02.2017 01:00:00 10,9 8,8 29 16 63 34 WZW 1012,5 - 0,0
22.02.2017 00:00:00 10,5 9,3 34 19 63 34 ZW 1013,1 - 0,0
21.02.2017 23:00:00 10,5 9,3 34 19 66 36 WZW 1013,6 - 0,0
21.02.2017 22:00:00 10,7 9,3 34 18 57 31 ZW 1014,2 12 0,0
21.02.2017 21:00:00 10,7 9,1 30 16 54 29 ZW 1014,5 - 0,0
21.02.2017 20:00:00 10,8 9,2 32 18 56 30 ZW 1014,3 - 0,0
21.02.2017 19:00:00 10,8 9,1 30 16 56 31 ZW 1014,9 4,0 0,0
21.02.2017 18:00:00 10,9 9,2 28 15 48 26 ZW 1015,4 - 0,0
21.02.2017 17:00:00 11,2 9,6 26 14 41 22 ZW 1015,7 - 0,0
21.02.2017 16:00:00 11,3 9,4 22 12 35 19 ZW 1016,2 12 0,0
21.02.2017 15:00:00 11,1 9,7 17 9 32 17 ZW 1017,0 - 0,0
21.02.2017 14:00:00 11,1 9,5 15 8 30 16 WZW 1017,5 - 0,0
21.02.2017 13:00:00 10,8 9,7 20 11 32 17 W 1018,0 12 0,0
21.02.2017 12:00:00 10,1 9,5 21 12 37 20 W 1018,3 8 0,0
21.02.2017 11:00:00 9,8 9,0 23 12 41 22 W 1018,5 8 0,0
21.02.2017 10:00:00 10,5 9,1 26 14 42 23 W 1018,0 10 0,0
21.02.2017 09:00:00 10,6 9,2 19 10 41 22 WZW 1017,6 - 0,0
21.02.2017 08:00:00 10,7 9,1 24 13 45 24 W 1017,1 - 0,0
21.02.2017 07:00:00 9,6 8,7 29 16 47 26 W 1017,0 - 0,2
21.02.2017 06:00:00 10,2 8,6 30 16 47 26 W 1017,0 - 0,0
21.02.2017 05:00:00 10,5 8,9 28 15 43 23 W 1016,9 - 0,0
21.02.2017 04:00:00 11,4 9,3 25 13 49 26 W 1017,1 - 0,0
21.02.2017 03:00:00 11,1 9,4 23 12 43 23 W 1017,4 - 0,0
21.02.2017 02:00:00 11,5 9,4 28 15 46 25 W 1017,6 - 0,0
21.02.2017 01:00:00 11,8 9,7 27 14 50 27 W 1017,6 - 0,0
21.02.2017 00:00:00 12,1 9,8 29 16 56 31 W 1017,3 - 0,0
20.02.2017 23:00:00 11,8 9,7 23 13 45 24 WZW 1017,5 - 0,0
20.02.2017 22:00:00 11,0 9,7 19 10 39 21 ZW 1017,6 15 0,0
20.02.2017 21:00:00 11,1 9,7 22 12 44 24 WZW 1017,3 - 0,0
20.02.2017 20:00:00 11,0 9,7 23 13 40 22 ZW 1017,3 - 0,0
20.02.2017 19:00:00 11,0 9,4 24 13 39 21 ZW 1017,0 - 0,0
20.02.2017 18:00:00 11,8 10,0 22 12 41 22 ZW 1017,0 - 0,0
20.02.2017 17:00:00 11,5 10,1 22 12 53 29 ZW 1016,8 - 0,0
20.02.2017 16:00:00 11,2 9,8 22 12 49 26 WZW 1017,5 8 0,0
20.02.2017 15:00:00 11,2 9,9 32 18 50 27 WZW 1017,2 - 0,0
20.02.2017 14:00:00 11,3 10,2 20 11 38 21 ZW 1017,3 - 0,0
20.02.2017 13:00:00 10,7 9,8 20 11 47 25 WZW 1018,4 6 0,0
20.02.2017 12:00:00 10,3 9,4 30 16 49 26 W 1019,2 - 0,0
20.02.2017 11:00:00 10,3 9,4 23 13 50 27 WZW 1019,0 - 0,0
20.02.2017 10:00:00 10,3 9,2 21 11 41 22 ZW 1018,8 5 0,0
20.02.2017 09:00:00 10,2 9,3 23 12 42 23 ZW 1019,0 - 0,0
20.02.2017 08:00:00 9,8 8,9 19 11 42 23 ZW 1019,0 - 0,0
20.02.2017 07:00:00 9,9 8,8 19 10 37 20 WZW 1019,5 - 0,0
20.02.2017 06:00:00 9,9 8,7 18 10 34 18 ZW 1019,4 5 0,0
20.02.2017 05:00:00 9,5 8,6 22 12 40 22 W 1019,6 - 0,0
20.02.2017 04:00:00 9,3 8,5 21 12 41 22 W 1020,1 - 0,4
20.02.2017 03:00:00 9,8 8,4 16 9 32 18 WZW 1020,7 - 0,0
20.02.2017 02:00:00 9,9 7,8 13 7 26 14 ZW 1021,1 - 0,0
20.02.2017 01:00:00 9,7 7,6 13 7 26 14 ZW 1021,8 - 0,0
20.02.2017 00:00:00 9,8 7,4 16 9 26 14 ZW 1021,9 - 0,0
19.02.2017 23:00:00 9,6 7,2 13 7 25 14 ZW 1022,2 - 0,0
19.02.2017 22:00:00 8,5 6,6 16 9 25 14 ZZW 1022,4 - 0,0
19.02.2017 21:00:00 9,3 6,9 11 6 26 14 WZW 1022,4 - 0,0
19.02.2017 20:00:00 9,2 7,0 16 9 32 17 ZW 1022,6 - 0,0
19.02.2017 19:00:00 9,5 6,9 17 9 31 17 ZZW 1022,4 - 0,0
19.02.2017 18:00:00 10,1 7,2 19 10 29 16 ZZW 1022,1 - 0,0
19.02.2017 17:00:00 9,1 6,9 19 10 30 16 W 1022,0 - 0,0
19.02.2017 16:00:00 10,7 7,0 20 11 36 20 W 1022,3 - 0,0
19.02.2017 15:00:00 10,8 6,9 22 12 40 22 W 1022,2 - 0,0
19.02.2017 14:00:00 10,2 7,3 25 14 40 21 W 1022,3 - 0,0
19.02.2017 13:00:00 9,4 6,8 27 14 43 23 W 1022,8 - 0,0
19.02.2017 12:00:00 9,7 6,8 26 14 45 24 W 1023,0 - 0,0
19.02.2017 11:00:00 9,1 6,7 23 12 44 24 W 1022,9 - 0,0
19.02.2017 10:00:00 7,5 6,3 15 8 26 14 ZW 1022,8 12 0,0
19.02.2017 09:00:00 5,1 4,2 13 7 21 11 ZZW 1022,9 - 0,0
19.02.2017 08:00:00 4,5 3,8 14 8 20 11 ZZW 1022,5 - 0,0
19.02.2017 07:00:00 4,5 3,9 14 8 19 10 ZZW 1022,8 12 0,0
19.02.2017 06:00:00 4,5 4,1 11 6 19 11 ZZW 1023,3 - 0,0
19.02.2017 05:00:00 4,3 3,9 13 7 21 11 Z 1023,1 - 0,2
19.02.2017 04:00:00 4,3 3,9 13 7 27 14 Z 1023,3 - 0,0
19.02.2017 03:00:00 3,9 3,5 19 11 29 15 Z 1023,5 - 0,0
19.02.2017 02:00:00 3,7 3,3 20 11 27 15 Z 1024,1 - 0,0
19.02.2017 01:00:00 3,5 2,9 16 9 22 12 Z 1024,7 6 0,0
19.02.2017 00:00:00 4,1 3,1 16 9 22 12 ZZW 1024,8 - 0,0
18.02.2017 23:00:00 5,6 3,9 13 7 18 10 Z 1024,9 - 0,0
18.02.2017 22:00:00 6,4 4,4 10 6 18 10 Z 1025,0 10 0,0
18.02.2017 21:00:00 7,2 5,0 10 5 15 8 ZZW 1025,0 - 0,0
18.02.2017 20:00:00 6,9 5,8 10 6 13 7 ZZW 1025,1 - 0,0
18.02.2017 19:00:00 5,1 4,1 0 0 7 4 N 1025,3 - 0,0
18.02.2017 18:00:00 5,5 4,1 7 4 13 7 WNW 1025,2 - 0,0
18.02.2017 17:00:00 8,1 5,4 10 5 17 9 WNW 1025,2 - 0,0
18.02.2017 16:00:00 11,3 6,2 14 7 21 11 Z 1025,2 - 0,0
18.02.2017 15:00:00 12,0 6,3 11 6 18 10 Z 1025,6 - 0,0
18.02.2017 14:00:00 11,5 6,4 13 7 19 10 Z 1026,1 - 0,0
18.02.2017 13:00:00 10,6 6,3 14 8 19 11 Z 1026,7 - 0,0
18.02.2017 12:00:00 9,2 5,6 13 7 21 11 Z 1027,2 - 0,0
18.02.2017 11:00:00 7,2 5,8 12 7 17 9 Z 1027,3 - 0,0
18.02.2017 10:00:00 5,3 4,9 11 6 16 9 Z 1027,0 10 0,0
18.02.2017 09:00:00 3,3 2,9 10 5 15 8 Z 1026,9 - 0,0

tt = temperatuur
td = dauwpunt
ff = windsnelheid
fx = windstoten
dd = windrichting
ppp = luchtdruk
vv = zicht
rr = neerslag

Weerstations in de omgeving